Vertical_Velocity
7 7 5 3 4 2 1 0 1 1 1 1 0 0 1 3 4 3 2 2 2 1 0 -0 -0 0 0 0 0 0 1 2 2 3 2 2 1 1 -1 -1 -0 -1 -1
3 4 5 5 3 2 1 -0 -0 -1 -1 0 -1 -1 1 2 1 0 0 0 1 1 -0 -0 -0 2 3 3 2 2 2 1 1 1 1 1 1 0 0 0 -0 -1 -2
1 -0 0 1 2 2 2 3 2 1 1 1 1 3 3 2 -1 -2 -3 -3 -1 -0 0 -0 -1 0 1 0 -0 -1 -0 -0 -0 0 -0 -1 -2 -0 0 0 0 1 -1
4 3 2 2 1 2 2 2 2 2 2 2 1 1 1 -0 0 0 0 0 -0 -1 -1 -1 -1 -0 -2 -2 -0 1 0 -1 -1 -1 -1 0 1 1 0 1 -1 -1 -1
0 -1 -1 -0 0 0 0 0 0 1 -0 -1 -0 0 0 1 1 1 1 1 1 0 0 1 -0 0 -0 0 -1 -1 0 -0 -2 -1 -1 -1 -0 -0 -0 -0 0 4 0
-0 -0 -0 -1 -0 -1 -1 -2 -1 -0 0 0 1 1 1 1 0 1 1 2 0 -1 -1 -1 -1 -2 -1 -1 -1 -0 -1 -3 -2 0 -1 -0 -5 -2 -0 2 1 -3 -2
-2 -2 -3 -2 -1 -1 -1 -2 -3 0 1 -0 -0 -0 -1 -0 -0 -0 1 -1 -1 -1 -0 -0 -0 -1 -1 -1 -1 -1 0 -0 -1 -1 1 -3 0 -7 -0 0 -4 -2 -0
-1 -1 -1 -0 0 -0 -1 -1 -2 -2 -1 -1 -1 -1 -1 -1 -1 -1 2 -2 -0 -0 -1 -0 -1 -1 -2 -1 -1 0 -2 1 -3 -2 1 -3 2 -4 0 -1 -0 -1 3
0 -1 -1 -2 -2 -2 -3 -2 -1 -1 -2 -0 -1 -0 1 -0 -1 -2 3 -1 -1 -0 -0 -0 -1 -1 -3 -3 2 -0 -1 2 -5 -1 -1 -0 -2 -2 -2 -3 1 -3 -1
-2 -1 -1 -1 -0 -0 -1 -2 -2 -0 -1 -1 -1 -0 0 -0 -0 -1 2 2 1 1 0 -1 -2 -2 -6 -4 -2 -0 2 -1 -3 -5 -3 0 1 3 2 -2 0 -4 -3
-0 -1 -1 -1 -1 -2 -2 -2 -2 -1 -2 -3 -3 -2 -3 -2 -1 -1 0 2 -1 -1 1 0 -1 -2 -1 -2 -2 -1 1 2 1 -2 -1 -3 -2 -1 0 -3 -4 -3 -1
-1 -1 -1 -1 -1 -0 -0 -1 -1 -1 -2 -1 -1 -1 -1 -1 -0 -1 -1 1 0 -1 -2 -1 -1 -3 -2 -4 -2 -3 -1 -0 2 2 -3 0 -1 -1 -2 -2 -0 -1 -3
0 0 1 0 -0 0 0 -0 -1 -1 -1 -1 -1 -1 -1 0 -1 -0 -4 -4 -2 -1 0 -0 -0 -3 -2 2 2 1 -2 -0 -4 -1 2 1 -4 -3 -1 1 -0 -1 -0
1 1 0 -0 -0 -0 -0 -0 -0 0 -0 -1 0 0 0 0 -0 -1 -2 1 -0 -0 -2 0 3 3 -0 -5 -5 -6 -3 -1 -2 -2 -1 -2 -1 -2 -5 -4 2 -4 -4
-0 -0 -0 -0 -1 -0 -0 -0 -1 -1 -0 -1 -0 -1 0 -1 -1 -1 0 0 -2 -1 -2 3 -0 -2 2 1 1 2 -1 -2 -2 -2 -2 -1 1 -1 -1 -4 -2 -3 -3
0 0 0 0 -0 -0 -0 -0 -1 -1 -1 -2 -1 -2 0 -2 -1 -1 -1 -1 -1 -3 1 -3 -1 1 -1 -1 -1 1 0 -2 -1 -3 -2 -0 1 0 1 0 -0 -2 -3
-1 -1 -1 -1 -0 -0 -1 -0 -0 -1 -1 -2 -1 -1 0 2 0 -2 -2 -2 1 -5 -0 1 1 -2 -1 -0 -0 -0 3 1 -4 -2 -1 0 -0 -0 -1 1 2 -1 1
-0 0 1 1 -0 -0 -0 -0 -1 -1 -2 -1 -0 -1 -1 0 -0 -2 -1 1 -1 -1 0 -0 -1 -3 -2 -1 -1 -2 -1 1 2 -0 -3 -1 1 -0 1 0 0 1 -1
1 1 1 0 0 0 0 0 0 -0 -1 -2 -0 -0 0 -1 -1 -1 -2 -0 1 -0 -3 -1 -4 -1 -0 -3 -3 -1 -2 0 -1 -1 -1 -2 -0 -2 1 3 1 0 1
1 1 0 -0 -0 0 -0 -0 0 -0 -1 -1 -2 -2 -2 1 -1 -3 -2 -0 -2 1 -0 -1 -2 -2 -3 -3 -3 -3 0 -1 -2 -3 -1 -1 0 -0 1 2 2 1 1
0 0 1 -2 -0 -0 -0 -0 0 1 0 0 -1 -0 -1 1 -1 1 -1 -1 -1 -1 -2 -0 -0 -1 -3 -3 -4 -4 -3 -1 -3 -2 -2 -1 -1 1 -1 0 2 1 2
-0 -0 0 -1 -2 0 1 0 -0 -0 -0 0 -1 -1 -0 -1 1 1 0 -1 -1 -1 -3 -1 -2 -4 -5 -3 -2 -1 -0 -2 -4 -2 -1 -1 -1 -0 -1 -0 0 1 1
0 0 0 0 -0 -1 -1 -0 -0 1 0 0 0 -0 -2 -1 -0 -2 -2 -1 -1 -2 -3 -2 -1 -3 -5 -3 -2 -1 -1 -3 -3 -2 -1 -1 -1 -0 -0 2 1 1 -0
0 0 1 -0 0 0 -1 -1 0 -1 0 -1 -1 -1 -2 -2 -3 -3 -2 -2 -2 -2 -4 -4 -3 -2 -2 -3 -1 -1 -1 -2 -1 -2 -1 -0 -0 -1 0 0 -0 0 0
0 2 0 -1 -0 -1 -1 -1 -1 -0 0 0 -1 -2 -2 -1 -1 -1 -1 -1 -1 -0 -3 -2 -1 -1 -1 -1 -1 0 -0 -1 -1 -2 -1 -0 -0 -1 -1 0 0 0 0
0 1 0 -0 -1 -1 0 -1 -1 -0 -0 -1 -1 -1 0 -0 -1 -1 -2 -2 -1 -1 -2 -2 -1 -0 -0 -1 -1 1 -0 -1 -2 -2 -1 -0 -0 -0 -1 0 0 0 1
Height
5598 5602 5605 5608 5612 5615 5618 5622 5626 5629 5633 5637 5640 5644 5647 5650 5654 5657 5660 5663 5667 5670 5672 5674 5677 5679 5682 5684 5686 5689 5691 5693 5696 5699 5701 5703 5705 5708 5710 5712 5714 5716 5717
5587 5591 5594 5598 5601 5605 5608 5611 5615 5618 5621 5625 5627 5630 5633 5635 5638 5642 5645 5648 5650 5653 5655 5658 5660 5663 5665 5667 5670 5672 5674 5676 5678 5680 5682 5684 5687 5689 5691 5693 5695 5696 5698
5577 5580 5584 5587 5591 5594 5597 5600 5603 5607 5610 5613 5616 5618 5621 5623 5625 5628 5630 5632 5635 5637 5640 5642 5645 5647 5649 5650 5652 5654 5656 5658 5659 5661 5663 5665 5667 5670 5671 5673 5675 5677 5678
5567 5570 5573 5576 5579 5582 5585 5588 5591 5594 5596 5599 5601 5603 5605 5608 5610 5612 5614 5616 5618 5620 5622 5624 5626 5628 5630 5632 5634 5636 5637 5639 5640 5641 5643 5644 5646 5649 5651 5652 5654 5655 5657
5558 5561 5563 5566 5568 5570 5573 5575 5578 5580 5583 5585 5587 5589 5591 5593 5594 5596 5598 5599 5600 5602 5604 5605 5607 5608 5610 5611 5613 5615 5617 5618 5619 5620 5621 5623 5624 5626 5628 5630 5631 5633 5634
5548 5550 5553 5555 5557 5559 5561 5563 5565 5568 5570 5573 5574 5576 5578 5579 5580 5581 5582 5582 5582 5584 5585 5587 5588 5589 5590 5591 5593 5594 5596 5596 5597 5598 5600 5601 5601 5603 5606 5608 5609 5611 5612
5537 5540 5542 5544 5546 5548 5550 5551 5553 5556 5557 5559 5559 5561 5562 5563 5564 5564 5565 5565 5566 5567 5568 5569 5569 5570 5571 5572 5574 5575 5576 5577 5578 5579 5580 5580 5581 5582 5585 5586 5587 5590 5590
5527 5530 5532 5534 5535 5536 5537 5539 5540 5541 5543 5543 5544 5545 5546 5546 5547 5547 5548 5548 5548 5550 5551 5551 5552 5552 5553 5555 5556 5557 5557 5558 5558 5560 5560 5560 5562 5561 5563 5564 5566 5567 5570
5516 5518 5520 5521 5522 5523 5523 5524 5525 5526 5527 5527 5527 5528 5528 5529 5530 5531 5532 5532 5533 5534 5534 5535 5535 5535 5536 5538 5539 5538 5538 5537 5537 5539 5541 5542 5541 5542 5542 5543 5545 5546 5548
5506 5507 5507 5508 5508 5509 5509 5510 5510 5511 5511 5511 5512 5513 5514 5514 5515 5517 5519 5519 5519 5520 5520 5519 5520 5520 5519 5520 5521 5522 5523 5520 5519 5520 5521 5522 5522 5523 5521 5521 5523 5523 5524
5495 5496 5497 5498 5499 5499 5499 5498 5498 5498 5499 5500 5502 5503 5504 5505 5506 5507 5508 5508 5508 5508 5508 5507 5506 5506 5507 5507 5506 5507 5507 5505 5504 5503 5503 5502 5502 5502 5502 5501 5501 5502 5502
5488 5489 5490 5491 5492 5491 5491 5490 5489 5490 5491 5493 5494 5495 5496 5497 5497 5498 5498 5498 5496 5496 5495 5494 5493 5492 5492 5492 5491 5489 5489 5488 5488 5487 5486 5485 5483 5482 5482 5483 5483 5483 5482
5482 5483 5483 5484 5485 5485 5485 5484 5483 5483 5484 5485 5486 5487 5487 5488 5487 5487 5485 5484 5484 5484 5483 5481 5480 5479 5478 5477 5475 5474 5472 5472 5470 5470 5470 5467 5465 5464 5464 5464 5463 5463 5464
5476 5477 5478 5478 5479 5478 5478 5478 5477 5477 5477 5478 5478 5477 5477 5476 5475 5474 5473 5472 5471 5470 5469 5468 5466 5465 5463 5460 5458 5457 5455 5454 5453 5453 5452 5450 5449 5447 5446 5444 5444 5442 5444
5471 5472 5472 5472 5472 5471 5471 5470 5470 5470 5469 5469 5468 5467 5467 5465 5463 5462 5461 5459 5457 5455 5454 5453 5451 5448 5447 5445 5442 5441 5438 5436 5434 5432 5431 5430 5429 5428 5426 5423 5423 5421 5423
5466 5466 5466 5466 5465 5464 5464 5463 5462 5461 5460 5459 5458 5457 5456 5453 5451 5450 5448 5445 5443 5441 5439 5436 5435 5433 5430 5427 5425 5422 5419 5417 5414 5412 5410 5409 5408 5407 5405 5403 5402 5401 5402
5459 5459 5458 5458 5457 5456 5456 5455 5454 5452 5451 5449 5448 5446 5444 5443 5440 5437 5434 5432 5430 5426 5424 5422 5420 5417 5413 5410 5407 5404 5401 5397 5393 5390 5388 5386 5384 5383 5382 5381 5379 5378 5379
5452 5451 5450 5450 5449 5448 5447 5446 5444 5443 5441 5440 5438 5436 5433 5431 5429 5426 5423 5420 5416 5413 5411 5407 5404 5400 5395 5391 5387 5383 5379 5375 5371 5367 5363 5360 5358 5356 5356 5354 5353 5354 5354
5444 5443 5442 5441 5440 5439 5438 5436 5434 5433 5431 5429 5427 5425 5423 5420 5416 5413 5409 5406 5403 5399 5395 5391 5386 5382 5377 5371 5366 5361 5356 5350 5345 5340 5336 5332 5329 5326 5327 5327 5326 5327 5327
5435 5434 5433 5432 5430 5429 5428 5426 5425 5423 5420 5418 5416 5413 5410 5408 5404 5399 5395 5392 5388 5384 5380 5375 5368 5362 5356 5350 5344 5337 5330 5323 5317 5311 5307 5303 5301 5299 5299 5300 5301 5302 5303
5426 5425 5424 5422 5421 5419 5418 5416 5414 5412 5409 5407 5404 5401 5397 5394 5390 5386 5381 5377 5372 5368 5362 5356 5350 5342 5335 5328 5321 5313 5307 5301 5295 5290 5286 5283 5281 5280 5280 5281 5283 5284 5286
5417 5416 5414 5412 5410 5409 5407 5405 5402 5400 5397 5394 5391 5387 5384 5380 5376 5372 5367 5362 5357 5351 5344 5338 5331 5323 5314 5307 5301 5295 5290 5285 5280 5277 5274 5271 5270 5269 5269 5270 5271 5273 5274
5406 5405 5403 5401 5399 5397 5395 5393 5390 5388 5384 5381 5377 5373 5369 5365 5361 5356 5351 5346 5340 5333 5327 5320 5312 5303 5296 5290 5286 5281 5277 5273 5270 5268 5266 5264 5262 5262 5262 5263 5264 5265 5266
5395 5393 5391 5389 5387 5385 5382 5380 5377 5373 5370 5367 5363 5359 5355 5351 5346 5341 5335 5329 5323 5316 5309 5302 5294 5287 5281 5277 5274 5270 5268 5265 5263 5261 5259 5258 5257 5256 5257 5257 5258 5259 5260
5383 5381 5379 5376 5374 5371 5368 5366 5363 5360 5357 5353 5349 5345 5340 5335 5330 5325 5319 5313 5307 5300 5291 5285 5278 5273 5269 5266 5263 5261 5259 5257 5255 5254 5253 5252 5251 5251 5251 5252 5252 5253 5253
5370 5368 5366 5363 5360 5358 5355 5352 5349 5346 5342 5339 5334 5330 5325 5320 5314 5309 5303 5297 5291 5283 5276 5270 5265 5261 5258 5256 5254 5253 5251 5250 5248 5247 5247 5247 5246 5246 5246 5246 5246 5246 5247